INTERCOSMOS 24

Last updated on Sun Jun 21 2026 00:02:15 GMT+0000 (Coordinated Universal Time)

1 20261U 89080A 26171.43164421 .00000658 00000+0 18514-3 0 9998 2 20261 82.6062 37.5341 1188327 54.3855 316.2175 12.59666413679730
UTC large
Height (km)
Speed (km/s)
/
Latitude / Longitude
Inclination (degrees)
Orbital Period (minutes)
Azimuth
Elevation
Range (km)
Doppler Factor

Next 0 passes for location: London (51.5072 / 0.1276)

No passes found over London.
INTERCOSMOS 24